Regional Weather Roundup
Issued by NWS Kansas City/Pleasant Hill, MO

Home | Current Version | Previous Version | Text Only | Print | Product List | Glossary On
Versions: 1 2 3 4 5 6 7 8 9 10 11 12 13 14 15 16 17 18 19 20 21 22 23 24 25 26 27 28 29 30 31 32 33 34 35 36 37 38 39 40 41 42 43 44 45 46 47 48 49 50
000
ASUS43 KEAX 222111
RWREAX

WEATHER ROUNDUP FOR EASTERN KANSAS AND NORTHWEST MISSOURI
NATIONAL WEATHER SERVICE KANSAS CITY/PLEASANT HILL MO
300 PM CST MON DEC 22 2014

KSZ040-057-103>105-MOZ028-029-037-043-222200-
...KANSAS CITY METROPOLITAN AREA...

CITY           SKY/WX    TMP DP  RH WIND       PRES   REMARKS
K.C. INTL      DRIZZLE   45  44  97 S8        29.42F FOG
K.C. DOWNTOWN  CLOUDY    47  44  90 S6        29.43F FOG
LEES SUMMIT    LGT RAIN  45  44  97 S6        29.44F FOG
OLATHE - IXD   CLOUDY    47  45  93 SW8       29.44F
OLATHE - OJC   CLOUDY    47  45  93 W8        29.43F
LAWRENCE       CLOUDY    48  44  86 W12       29.44S

$$

MOZ001>008-011>017-020>025-030>033-038>040-044>046-053-054-222200-
...NORTHERN AND CENTRAL MISSOURI...

CITY           SKY/WX    TMP DP  RH WIND       PRES   REMARKS
ST. JOSEPH     CLOUDY    45  44  97 S8        29.42S FOG
MOSBY          CLOUDY    45  45 100 SE3       29.44F FOG
WARRENSBURG    RAIN      45  43  93 S6        29.45F
WHITEMAN AFB   LGT RAIN  46  45  95 S8        29.45F
CLINTON        DRIZZLE   48  48 100 S6        29.48S
SEDALIA        CLOUDY    47  46  97 S8        29.47F FOG
WARSAW         NOT AVBL
MARSHALL       LGT RAIN  48  46  93 SE7       29.48F
CHILLICOTHE      N/A     44  42  93 SE3       29.47F
MOBERLY        DRIZZLE   46  43  87 SE7       29.49F
KIRKSVILLE     LGT RAIN  42  42 100 SE8       29.49F FOG

$$

MOZ041-047>049-056>058-063>065-088>090-097-222200-
...EASTERN AND SOUTHERN MISSOURI...

CITY           SKY/WX    TMP DP  RH WIND       PRES   REMARKS
ST. LOUIS INTL LGT RAIN  49  46  90 SE10      29.56F FOG
SPIRIT OF STL  LGT RAIN  47  45  93 E3        29.55F
COLUMBIA       LGT RAIN  47  46  97 S9        29.49F FOG
JEFFERSON CITY CLOUDY    49  46  90 SE7       29.50F
MEXICO         CLOUDY   N/A N/A N/A SE10      29.50F
HANNIBAL       MIX PCPN  45  43  93 SE3       29.53F
ROLLA          CLOUDY    47  44  90 S7        29.50F
LEBANON        DRIZZLE   46  45  93 S9        29.50F
OSAGE BEACH    CLOUDY    48  45  87 S7        29.50R
SPRINGFIELD    CLOUDY    48  46  93 S9        29.48F FOG
BRANSON        CLOUDY    48  46  93 S5        29.51F FOG
NEVADA         LGT RAIN  48  46  93 SW7       29.48S
JOPLIN         LGT RAIN  49  48  97 SW9       29.49S FOG
WEST PLAINS    LGT RAIN  49  46  90 S12       29.53F FOG

$$

IAZ060-094-KSZ022-034>040-054-083-096-NEZ052-066-093-222200-
...KANSAS...SOUTHEAST NEBRASKA AND IOWA...

CITY           SKY/WX    TMP DP  RH WIND       PRES   REMARKS
TOPEKA         CLOUDY    48  43  82 W12       29.46R
MANHATTAN      CLOUDY    48  41  76 NW5       29.48S
EMPORIA        CLOUDY    47  39  74 W13       29.49R
CHANUTE        CLOUDY    49  47  93 W9        29.48S
WICHITA        MOSUNNY   54  38  54 NW17G25   29.54S
OMAHA          LGT RAIN  43  42  97 SE6       29.41F FOG
LINCOLN        CLOUDY    44  39  82 NW15      29.43F
FALLS CITY     LGT RAIN  45  32  60 NW14      29.41R
LAMONI         LGT RAIN  41  40  96 SE7       29.44F
DES MOINES     LGT RAIN  41  38  89 SE9       29.47F FOG

$$



USA.gov is the U.S. government's official web portal to all federal, state and local government web resources and services.